Skip Page Navigation
NASA JPL Caltech
NASA Logo - Jet Propulsion Laboratory + View the NASA Portal
+ Center for Near-Earth Object Studies
JPL Home Earth Solar System Stars & Galaxies Technology
JPL Solar System Dynamics
BODIES ORBITS EPHEMERIDES TOOLS PHYSICAL DATA DISCOVERY FAQ SITE MAP
JPL Small-Body Database Browser
Search: [ help ]  
17008 (1999 CL65)
Classification: Main-belt Asteroid          SPK-ID: 2017008
Ephemeris | Orbit Diagram | Orbital Elements | Mission Design | Physical Parameters | Discovery Circumstances ]

[ show orbit diagram ]
Orbital Elements at Epoch 2459200.5 (2020-Dec-17.0) TDB
Reference: JPL 25 (heliocentric ecliptic J2000)
 Element Value Uncertainty (1-sigma)   Units 
e .1126515529801627 6.6066e-08  
a 2.973784293947113 2.0061e-08 au
q 2.638782875005954 2.0294e-07 au
i 7.581619975593823 4.0185e-06 deg
node 263.5482840901826 4.7281e-05 deg
peri 98.22430983340722 5.0302e-05 deg
M 222.0744901786863 1.934e-05 deg
tp 2459918.136830007385
(2022-Dec-04.63683001)
0.00010374 TDB
period 1873.10715137002
5.13
1.8954e-05
5.189e-08
d
yr
n .1921940235702428 1.9448e-09 deg/d
Q 3.308785712888272 2.2321e-08 au
  Orbit Determination Parameters
   # obs. used (total)      1263  
   data-arc span      25040 days (68.56 yr)  
   first obs. used      1951-11-08  
   last obs. used      2020-05-29  
   planetary ephem.      DE441  
   SB-pert. ephem.      SB441-N16  
   condition code      0  
   norm. resid. RMS      .48531  
   source      ORB  
   producer      Otto Matic  
   solution date      2021-Apr-13 01:50:52  

Additional Information
 Earth MOID = 1.64829 au 
 Jupiter MOID = 2.19253 au 
 T_jup = 3.239 
[ show covariance matrix ]

Ephemeris | Orbit Diagram | Orbital Elements | Mission Design | Physical Parameters | Discovery Circumstances ]

Physical Parameter Table
Parameter Symbol Value Units Sigma Reference Notes
absolute magnitude H 13.58   n/a E2021B10  
diameter diameter 5.891 km 1.100 urn:nasa:pds:neowise_diameters_albedos::2.0[mainbelt] (http://adsabs.harvard.edu/abs/2011ApJ...741...68M)  
geometric albedo albedo 0.352   0.096 urn:nasa:pds:neowise_diameters_albedos::2.0[mainbelt] (http://adsabs.harvard.edu/abs/2011ApJ...741...68M)  

17008 (1999 CL65)          Discovered 1999-Feb-12 by LINEAR at Socorro
Reference: 20000913/Numbers.arcLast Updated: 2004-04-19

Alternate Designations
 1999 CL65 = 1991 RS35 = 1997 WN50 = 2000 JE20 
Ephemeris | Orbit Diagram | Orbital Elements | Mission Design | Physical Parameters | Discovery Circumstances ]
ABOUT SSD CREDITS/AWARDS PRIVACY/COPYRIGHT GLOSSARY LINKS
FirstGov 2021-Apr-19 10:02 UT
(server date/time)  
NASA Home Page
Site Manager:   Ryan S. Park
Webmaster  Alan B. Chamberlin